Вернуться в каталог

ONEWEB-0298

АктивенСвязьPO
NORAD 49087·PAYLOAD·🇬🇧 United Kingdom

Запущен Aug 21, 2021 с Baikonur Cosmodrome

Loading…

Ближайшие Пролёты (ближайшие 24 часа)

TLE

СвежийSource: CelesTrak SupGP

Эпоха: Sep 14, 2026, 17:51 UTC

1 49087C 21075N   26257.74391620  .00001793  00000+0  46227-2 0  2576
2 49087  87.9199 348.0825 0001991 104.0264   5.4017 13.17646904    19

Отслеживайте ONEWEB-0298 в реальном времени с AllMySat

Download on the App Store